Orbital Elements at Epoch 2459000.5 (2020-May-31.0) TDB
Reference: JPL 12 (heliocentric ecliptic J2000)
Element | Value | Uncertainty (1-sigma) | Units |
e | .1312118027590011 | 7.8517e-08 | |
a | 2.256386292290962 | 1.6395e-08 | au |
q | 1.960321779158767 | 1.7933e-07 | au |
i | 4.244416941233132 | 6.3323e-06 | deg |
node | 260.4465008279433 | 0.00011618 | deg |
peri | 287.0664326536486 | 0.00011906 | deg |
M | 235.6896909485234 | 2.9255e-05 | deg |
tp | 2459427.987333745161 (2021-Aug-01.48733375) | 0.00010256 | TDB |
period | 1237.994188273881 3.39 | 1.3493e-05 3.694e-08 | d yr |
n | .2907929644661282 | 3.1694e-09 | deg/d |
Q | 2.552450805423157 | 1.8546e-08 | au |
|
| | Orbit Determination Parameters
Additional Information
|